FENGYUN 1C DEB

Satellite information

Favourite Embed

Satellite Type and Status

DEBRISIN ORBIT

Key statistics

Satellite FENGYUN 1C DEB at a glance.

Uptime

9658

Days in orbit

Revolutions

≈ 14.3

Per day

Orbit

SSO

Sun Synchronous Orbit

Inclination

99.1

Latest

Satellite identification and parameters

Extended collection of information and parameters for FENGYUN 1C DEB.

Object identification

Identified? True

Debris? True

Object name: FENGYUN 1C DEB

International designator: 1999-025CWP

Object number (NORAD): 32241

Object ID (CCSDS): 32241

Country: PEOPLES REPUBLIC OF CHINA (PRC)

Current information (Y/N): Y

RCS size: SMALL

Orbital parameters

Period: 100.836 minutes

Inclination: 99.0837 deg

SMA: 7176.374 km

Apoapsis: 903.555 km

Periapsis: 692.924 km

RAAN: 314.8888 deg

Eccentricy: 0.0146753

Argument of periapsis: 34.618 deg

Mean anomaly: 326.4448 deg

Mean motion: 14.28055685 rev/day

Mean motion (dot): 0.00004577 rev/day2

B* drag term: 0.0016593852 1/REarth

Two-line elements (TLE)

Creation date: Oct. 15, 2025, 2:21 a.m.

Reference frame: TEME

Reference center: EARTH

Epoch: Oct. 14, 2025, 7:34 p.m. UTC

TLE line 0: 0 FENGYUN 1C DEB

TLE line 1: 1 32241U 99025CWP 25287.81583382 .00004577 00000-0 16594-2 0 9999

TLE line 2: 2 32241 99.0837 314.8888 0146753 34.6180 326.4448 14.28055685929823

Live tracking on map

Real-time ground track for satellite FENGYUN 1C DEB.

In-orbit conjunctions

A list of the most updated potential collisions computed for object FENGYUN 1C DEB.

Target Orbit TCA Probability of collision Miss distance Type
QAEM 100 R/B LEO 2025-07-27 04:29:21 0.0006105784 134.0 (m) ROCKET BODY
COSMOS 972 LEO 2025-02-02 13:07:20 0.0001243244 590.0 (m) PAYLOAD

Associated space launch

Chinese polar orbiting meteorological satellite

FENGYUN 1C DEB was lifted into orbit during the mission ‘Long March 4B | Feng Yun 1C’, on board a Long March 4B space rocket.

The launch took place on May 10, 1999, 1:33 a.m. from Launch Complex 7.

For more information about the launch, click the button.

Launch to space Long March 4B | Feng Yun 1C
Long March 4B | Feng Yun 1C

Agency: N/A

Status: Launch Successful

Launch date: May 10, 1999, 1:33 a.m. UTC

Rocket: Long March 4B

Launch pad: Launch Complex 7

Location: Taiyuan Satellite Launch Center, People's Republic of China

...

Latest news about this satellite

There are no fresh news available about this satellite. Check back as we update our databases every day.


Newsletter sign-up

Weekly statistics, charts and insights to help you stay on top of the space industry.